Location: Smithers
(54.7670°N, 127.1670°W)
Time: 06:28:00
(UTC-07:00)

Daily predictions for brighter satellites

Satellite Brightness Start Highest point End
(mag) Time Altitude Azimuth Time Altitude Azimuth Time Altitude Azimuth
NOSS 3-1 (C) 4.2 19:49:14 10° NW 19:56:28 77° SW 20:04:40 10° SE
Cosmos 1603 3.9 19:51:44 10° SW 19:57:21 78° NW 20:03:01 10° NNE
FengYun 1-2 T 4.3 19:52:34 10° SSE 19:58:09 72° ENE 20:03:42 10° NNW
Cosmos 1953 Rocket 3.6 19:55:07 10° NNW 19:59:31 88° E 20:03:51 10° S
Cosmos 1763 Rocket 4.2 19:55:36 10° SSE 20:00:05 32° ESE 20:04:39 10° NE
Cosmos 1340 Rocket 3.1 19:56:07 10° NNW 20:00:12 77° WSW 20:04:15 10° S
SL-16 R/B 3.7 19:56:11 10° WSW 20:01:28 38° NW 20:06:46 10° NNE
Cosmos 1378 3.1 19:58:20 10° N 20:02:09 76° ENE 20:05:55 10° SSE
Cosmos 1674 4.4 20:00:18 10° NNE 20:02:40 16° ENE 20:05:01 10° E
Meteor 1-15 Rocket 4.3 19:58:07 10° S 20:03:59 80° ESE 20:09:49 10° NNE
Cosmos 1271 Rocket 2.6 20:00:59 10° S 20:04:45 67° E 20:08:35 10° NNE
Thor Agena Rocket 3.7 19:59:48 10° NNE 20:04:59 53° E 20:10:06 10° S
Cosmos 1606 Rocket 3.6 20:00:58 10° S 20:05:15 60° E 20:09:32 10° NNE
Cosmos 2058 Rocket 3.5 20:02:46 10° SSE 20:06:51 40° E 20:10:59 10° NNE
ALOS 2.8 20:02:49 10° S 20:07:28 65° WSW 20:12:08 10° NNW
FREGAT/IRIS 2.7 20:05:30 10° SSE 20:08:32 84° WSW 20:11:36 10° NNW
YAOGAN 6 4.3 20:07:26 10° E 20:09:46 17° ENE 20:12:07 10° NNE
Cosmos 1570 Rocket 4.2 20:04:51 10° SSW 20:10:05 82° WNW 20:15:23 10° NNE
In-Cosmos 22 4.4 20:05:09 10° N 20:10:40 53° ENE 20:16:16 10° SE
Cosmos 2237 Rocket 4.3 20:08:06 10° W 20:12:36 24° NNW 20:17:08 10° NNE
Cosmos 1544 4.4 20:11:52 10° SE 20:14:30 19° E 20:17:09 10° NE
Cosmos 2208 Rocket 4.3 20:10:16 10° SSW 20:15:44 83° WNW 20:21:12 10° NNE
DMSP B5D1-3 4.5 20:11:50 10° NNE 20:16:58 82° ESE 20:22:05 10° SSW
BREEZE M DEB (TANK) 3.7 20:13:07 10° WSW 20:19:43 34° S 20:22:11 12° ESE
Cosmos 1943 3.3 20:15:45 10° SSW 20:21:27 89° WNW 20:27:13 10° NNE
USA 267 3.4 20:15:14 10° ENE 20:21:48 80° NNW 20:28:22 10° W
Cosmos 1356 Rocket 3.4 20:19:24 10° NNW 20:23:42 82° ENE 20:28:02 10° SSE
CZ-2D R/B 3.3 20:20:47 10° SSE 20:24:32 61° ENE 20:28:21 10° N
Spot 2 Rocket 3.6 20:21:34 10° SE 20:26:29 55° ENE 20:31:26 10° N
Cosmos 1356 4.0 20:29:01 10° N 20:32:22 39° ENE 20:35:26 12° SE
Cosmos 332 Rocket 4.0 20:30:57 10° SSW 20:35:50 76° WNW 20:40:43 10° NNE
Cosmos 2278 4.3 20:31:27 10° NNW 20:36:51 42° NE 20:41:11 15° ESE
SJ-6B 3.4 20:33:58 10° S 20:37:56 59° W 20:41:49 10° NNW
Meteor 2-13 Rocket 4.4 20:32:11 10° S 20:38:17 79° E 20:44:22 10° NNE
Cosmos 1953 3.8 20:39:03 17° ESE 20:40:12 18° E 20:43:03 10° NE
Meteor 1-24 Rocket 3.9 20:34:11 10° NNW 20:40:15 88° WSW 20:46:09 10° S
Cosmos 371 Rocket 3.5 20:36:14 10° SSW 20:41:07 80° WNW 20:46:03 10° NNE
Cosmos 1814 Rocket 3.9 20:36:18 10° SSW 20:41:26 71° ESE 20:46:34 10° NNE
COSMO-SKYMED 1 4.2 20:37:58 10° N 20:42:02 39° WNW 20:46:05 10° SW
Cosmos 1125 Rocket 3.5 20:36:49 10° NNW 20:42:09 86° ENE 20:47:28 10° SSE
EP 1 4.2 20:39:43 10° SW 20:42:18 88° SE 20:45:10 10° NE
SPOT 5 4.5 20:43:54 13° ENE 20:45:34 15° NE 20:48:10 10° NNE
Helios 1A 4.0 20:44:06 18° ESE 20:46:26 30° ENE 20:50:05 10° N
Cosmos 2322 Rocket 4.1 20:47:35 10° NNW 20:51:32 19° NNE 20:55:28 10° ENE
ERS-1 Rocket 3.9 20:51:43 19° ESE 20:54:24 30° ENE 20:58:46 10° N
Cosmos 389 Rocket 3.9 20:51:40 10° SW 20:55:01 41° WNW 20:58:21 10° N
Cosmos 2084 Rocket 4.2 20:51:40 10° NW 20:55:19 36° NNE 20:57:29 20° ENE
Cosmos 372 Rocket 4.0 20:50:16 10° NNW 20:55:33 86° WSW 21:00:49 10° SSE
Envisat 3.0 20:53:35 10° SSE 20:58:41 86° ENE 21:03:48 10° NNW
Cosmos 2360 Rocket 4.3 20:57:42 10° NNW 21:01:09 16° N 21:04:36 10° NE
H-2A R/B 3.4 21:01:25 18° E 21:03:18 22° NE 21:07:11 10° N
Cosmos 1697 Rocket 3.4 20:58:43 10° NNW 21:04:06 41° NE 21:07:17 22° E
Cosmos 1980 Rocket 3.3 20:59:25 10° NNW 21:04:25 31° NE 21:07:30 19° E
Resurs 1-3 3.9 21:02:03 10° S 21:06:26 70° WSW 21:10:50 10° NNW
Cosmos 2154 Rocket 4.0 21:05:31 10° S 21:11:35 58° E 21:17:44 10° NNE
CZ-4B DEB 4.1 21:13:09 21° NE 21:13:09 21° NE 21:14:47 10° N
Cosmos 1656 3.9 21:07:52 10° NNW 21:13:31 57° NE 21:16:37 26° ESE
Cosmos 2074 Rocket 4.1 21:10:05 10° SSW 21:16:19 82° WNW 21:22:34 10° N
Cosmos 1766 3.3 21:14:18 10° SSW 21:18:14 82° WNW 21:22:11 10° N
Cosmos 1076 Rocket 3.7 21:14:29 10° N 21:18:48 53° ENE 21:20:38 31° SE
Cosmos 841 Rocket 3.4 21:15:26 10° SSW 21:20:35 87° WNW 21:25:47 10° NNE
Cosmos 2341 Rocket 4.2 21:14:51 10° SSE 21:20:47 50° E 21:26:47 10° NNE
USA 186 2.7 21:20:03 17° SSW 21:21:34 33° W 21:23:46 10° NNW
Cosmos 1758 3.4 21:20:28 26° SSE 21:22:27 50° E 21:26:21 10° NNE
Cosmos 2084 3.1 21:21:10 10° SW 21:25:06 62° SE 21:26:54 29° ENE
GP-B 3.2 21:21:06 10° N 21:25:35 81° W 21:30:01 10° S
Resurs 01 Rocket 2.7 21:21:27 10° S 21:25:42 45° W 21:29:58 10° NNW
Meteor 1-22 Rocket 4.3 21:20:48 10° SSW 21:26:29 80° WNW 21:31:58 10° NNE
SL-16 R/B 3.7 21:23:41 10° NNW 21:28:16 24° NNE 21:31:06 17° ENE
ATLAS 2AS CENTAUR R/B 3.0 21:20:52 10° NW 21:29:05 82° NE 21:33:46 27° SE
Cosmos 304 Rocket 3.8 21:24:21 10° SSW 21:29:10 81° WNW 21:34:01 10° NNE
Cosmos 1939 Rocket 3.1 21:29:01 19° S 21:31:40 67° WSW 21:35:37 10° NNW
Meteor 1-21 Rocket 4.3 21:28:23 10° NNW 21:34:14 85° WSW 21:38:38 18° S
COSMOS 2406 3.1 21:29:56 10° SSW 21:35:37 70° ESE 21:41:22 10° NE
Nadezhda 3 Rocket 4.3 21:30:08 10° NNW 21:36:27 70° W 21:42:40 10° S
Cosmos 1408 Rocket 3.8 21:32:48 10° N 21:37:01 48° ENE 21:37:41 44° ESE
Iridium 4 Rocket 4.5 21:38:36 25° ENE 21:38:36 25° ENE 21:42:02 10° NNE
Cosmos 1674 2.9 21:34:58 10° NNW 21:38:44 66° W 21:40:28 29° S
NOAA 11 4.1 21:37:26 29° SSE 21:40:16 75° ENE 21:45:43 10° NNW
NOSS 3-4 (A) 4.2 21:34:14 10° NW 21:40:44 50° NNE 21:44:45 25° E
NOSS 3-4 (C) 4.2 21:34:20 10° NW 21:40:50 50° NNE 21:44:52 25° E
Cosmos 1763 Rocket 4.3 21:36:41 10° SW 21:41:43 53° NW 21:46:50 10° NNE
Cosmos 1812 Rocket 3.7 21:37:23 10° SSW 21:41:52 80° WNW 21:46:23 10° N
SAR-Lupe-4 4.1 21:42:34 43° NE 21:42:34 43° NE 21:45:48 10° N
Cosmos 2058 4.4 21:39:13 10° N 21:42:18 24° NE 21:42:18 24° NE
YAOGAN 6 2.9 21:41:31 34° S 21:42:55 63° WSW 21:46:33 10° NNW
Cosmos 540 Rocket 3.3 21:39:23 10° SSW 21:44:29 81° ESE 21:49:39 10° NNE
FALCON 9 R/B 4.5 21:42:41 10° S 21:42:57 10° S 21:42:57 10° S
ARGOS 3.3 21:42:55 38° SE 21:44:48 57° ENE 21:50:08 10° N
Cosmos 1626 3.7 21:42:22 10° N 21:44:40 23° NE 21:44:40 23° NE
Cosmos 2369 3.7 21:40:11 10° NW 21:45:52 83° WSW 21:48:29 34° SSE
Cosmos 1544 4.2 21:45:55 10° SSW 21:49:23 43° WNW 21:52:52 10° N
Cosmos 2366 rocket 4.4 21:48:21 36° ESE 21:49:50 42° E 21:55:41 10° NNE
MetOp-A 4.1 21:48:10 39° SE 21:50:11 71° ENE 21:55:34 10° NNW
Cosmos 2285 Rocket 4.4 21:49:13 36° SE 21:50:25 39° ESE 21:56:20 10° NE
Cosmos 2218 Rocket 4.2 21:48:54 36° SE 21:50:43 46° E 21:56:35 10° NNE
Cosmos 1805 3.8 21:50:46 10° SSW 21:54:37 57° WNW 21:58:29 10° N
Okean 3 Rocket 3.9 21:50:26 10° NNW 21:54:55 64° W 21:57:02 29° SSW
Terra 3.0 21:59:22 27° ENE 21:59:24 27° ENE 22:03:23 10° N
Cosmos 1733 3.4 22:01:16 57° NE 22:01:16 57° NE 22:04:27 10° NNE
Cosmos 1766 Rocket 3.4 21:58:48 10° NNW 22:03:10 88° E 22:03:46 66° SSE
Cosmos-2242 4.1 22:04:40 32° NE 22:04:40 32° NE 22:07:22 10° NNE
Meteor 2-21 4.4 22:00:32 30° S 22:03:42 68° E 22:09:47 10° NNE
Cosmos 1743 Rocket 4.0 22:00:04 10° N 22:03:54 45° NE 22:03:54 45° NE
USA 267 3.3 22:01:28 33° E 22:04:44 78° N 22:11:18 10° WNW
Cosmos 2360 4.4 22:01:25 10° NNW 22:07:05 57° NE 22:08:20 47° E
Cosmos 2219 Rocket 4.5 22:04:38 10° NNW 22:08:01 16° N 22:11:24 10° NE
Cosmos 1818 3.6 22:02:54 10° NW 22:08:23 72° NE 22:09:33 54° ESE
SPOT 1/Viking Rocket 3.7 22:08:06 51° E 22:08:43 54° ENE 22:13:45 10° N
Cosmos 2151 3.8 22:06:36 10° N 22:10:00 38° NE 22:10:00 38° NE
Cosmos 1470 2.9 22:11:37 67° NNE 22:11:37 67° NNE 22:15:08 10° NNE
Cosmos 1727 Rocket 3.9 22:05:07 10° N 22:11:26 73° ENE 22:13:21 47° SSE
Cosmos 1295 Rocket 4.4 22:06:53 15° S 22:12:01 89° W 22:18:09 10° N
Meteor 2-15 Rocket 4.4 22:07:00 10° NNW 22:13:07 83° W 22:15:40 37° S
SL-08 RB Rocket 3.5 22:13:16 71° E 22:13:22 72° ENE 22:17:53 10° NNW
GEOS 3 Rocket 4.2 22:10:44 10° NE 22:17:38 41° S 22:21:21 10° SSW
Cosmos 1953 2.9 22:14:43 34° SW 22:16:15 58° WNW 22:20:18 10° N
SL-8 Rocket 3.8 22:16:12 36° S 22:18:54 79° E 22:25:06 10° NNE
Cosmos 2278 4.3 22:15:41 10° NW 22:21:10 52° WSW 22:23:06 36° SSW
Cosmos 2056 Rocket 4.4 22:16:27 10° NNW 22:21:30 37° NE 22:22:00 36° ENE
Helios 1A 4.0 22:20:45 33° SW 22:21:54 41° W 22:25:54 10° NNW
SPOT 5 2.5 22:23:09 77° NE 22:23:09 77° NE 22:27:27 10° NNW
Helios 1B rocket 3.0 22:19:00 10° NNE 22:22:06 49° NNE 22:22:06 49° NNE
Cosmos 783 Rocket 4.4 22:18:39 13° SSW 22:23:25 89° WNW 22:28:39 10° NNE
Cosmos 2082 Rocket 3.8 22:27:14 21° ENE 22:27:14 21° ENE 22:29:14 10° NE
Cosmos 1703 4.4 22:21:48 10° N 22:24:30 36° NNE 22:24:30 36° NNE
Cosmos 1809 Rocket 4.4 22:24:20 26° SSW 22:27:58 84° WNW 22:34:08 10° N
ERS-1 Rocket 3.4 22:31:43 43° SSW 22:32:58 55° W 22:37:56 10° NNW
Cosmos 1328 4.4 22:30:50 10° NNW 22:34:24 57° WNW 22:34:24 57° WNW
Cosmos 2084 Rocket 4.2 22:31:11 10° NW 22:34:01 44° WNW 22:34:01 44° WNW
SL-14 R/B 4.1 22:31:35 10° NNW 22:35:08 47° W 22:35:08 47° W
Cosmos 1500 Rocket 4.0 22:31:14 10° N 22:34:55 56° NNE 22:34:55 56° NNE
Cosmos 2322 Rocket 2.7 22:31:41 10° NNW 22:37:05 44° NE 22:37:34 43° ENE
Meteor 2-16 Rocket 4.3 22:40:05 62° S 22:41:11 83° E 22:47:19 10° NNE
H-2A R/B 1.9 22:42:03 78° SW 22:42:12 80° WSW 22:47:19 10° NNW
Cosmos 1000 Rocket 4.5 22:37:09 10° N 22:43:30 64° ENE 22:43:57 62° E
Cosmos 1400 Rocket 3.9 22:40:34 10° N 22:43:24 41° N 22:43:24 41° N
Cosmos 2360 Rocket 3.4 22:42:04 10° NNW 22:47:02 30° NE 22:47:51 29° NE
Cosmos 864 Rocket 4.4 22:46:46 57° S 22:48:12 89° E 22:54:35 10° NNE
Cosmos 1697 Rocket 3.1 22:42:46 10° NW 22:48:18 54° WSW 22:49:01 51° SW
Cosmos 1980 Rocket 2.1 22:43:21 10° NW 22:49:01 80° WSW 22:49:16 78° SSW
H-2A R/B 3.6 22:56:09 29° NNE 22:56:09 29° NNE 22:58:53 10° N
COSMOS 2428 4.3 22:54:35 10° NNW 22:59:11 24° NNE 23:00:35 22° NE
Cosmos 2333 Rocket 4.2 23:01:48 10° NNW 23:05:57 20° NNE 23:08:14 16° NE
SL-16 R/B 2.4 23:07:43 10° NNW 23:12:57 65° NNE 23:12:57 65° NNE
Cosmos 1371 Rocket 4.3 23:10:38 10° NNW 23:15:12 66° NNW 23:15:12 66° NNW
Iridium 4 Rocket 4.1 23:18:22 47° NW 23:18:22 47° NW 23:22:32 10° N
ATLAS 2AS CENTAUR R/B 3.8 23:12:22 10° NW 23:19:37 38° WSW 23:21:11 35° SW
Cosmos 2058 4.5 23:15:49 10° NNW 23:18:32 34° NW 23:18:32 34° NW
Cosmos 1626 4.5 23:17:32 10° NNW 23:19:19 23° NW 23:19:19 23° NW
Cosmos 1624 Rocket 4.5 23:16:10 10° NNW 23:20:21 58° NNW 23:20:21 58° NNW
NOSS 3-4 (A) 3.6 23:25:20 10° NW 23:32:10 78° SW 23:32:10 78° SW
NOSS 3-4 (C) 3.6 23:25:26 10° NW 23:32:17 79° SW 23:32:17 79° SW
Terra 2.9 23:38:16 41° NW 23:38:16 41° NW 23:41:36 10° NNW
Cosmos 2237 Rocket 4.1 23:40:44 10° NNW 23:45:07 22° NNE 23:46:41 20° NE
USA 267 3.4 23:48:49 61° WSW 23:48:49 61° WSW 23:54:27 10° WNW
Cosmos 1833 Rocket 3.5 23:51:38 46° NNE 23:51:38 46° NNE 23:55:39 10° NNE
Cosmos 2219 Rocket 3.6 23:48:59 10° NNW 23:53:53 29° NE 23:53:58 29° NE
GEOS 3 Rocket 4.3 23:48:53 10° NE 23:54:06 53° NNW 23:59:20 10° WSW
